{"data":{"norad_id":66748,"intl_designator":"2025-276CL","name":"UMBRA-11","alt_names":[],"object_type":"PAYLOAD","status":"ACTIVE","operator":null,"country":"US","launch_date":"2025-11-28","launch_site_code":"AFWTR","launch_vehicle":null,"mission":null,"orbit_class":"UNKNOWN","rcs_meters":null,"size_class":null,"mass_kg":null,"dimensions":null,"purposes":[],"wikipedia_slug":null,"has_3d_model":false,"image_url":null,"decayed_at":null,"tle_current":{"epoch":"2026-05-25T04:16:20.915040Z","epoch_age_seconds":56334,"freshness":"FRESH","line1":"1 66748U 25276CL  26145.17801985  .00022176  00000+0  87500-3 0  9990","line2":"2 66748  97.4205 219.9688 0003343  84.7183 275.4437 15.25556084 26985","mean_motion":15.25556084,"eccentricity":0.0003343,"inclination_deg":97.4205,"raan_deg":219.9688,"arg_perigee_deg":84.7183,"mean_anomaly_deg":275.4437,"bstar":0.000875,"rev_number":2698,"period_min":94.391809983434,"perigee_km":486.82040500858,"apogee_km":491.41185044977,"semimajor_km":6867.2531277292,"source":"CELESTRAK","updated_at":"2026-05-25T13:38:06.450623Z"}}}